Location: Feigenhofen
(48.4939°N, 10.7793°E)
Time: 16:31:37
(UTC+00:00)

Cosmos 2278 Rocket - Pass Details

Date: 26 May 2022
Orbit: 840 x 846 km, 71.0° (Epoch: 06 July)

Event Time Altitude Azimuth Distance (km) Brightness Sun altitude
Rises 01:36:58 0° 317° (NW) 3,416 5.5 -13.4°
Reaches altitude 10° 01:40:35 10° 294° (WNW) 2,474 4.5 -13.1°
Maximum altitude 01:43:27 14° 263° (W) 2,178 4.0 -12.8°
Enters shadow 01:44:57 13° 246° (WSW) 2,261 3.9 -12.7°
